This demonstration page uses our WeatherBlox Daily Observations layout. Learn more.

Left ArrowRight Arrow

41.55636, -103.73856

Hourly Observations for July 19, 2015

Temp ( °F °C ) Dew Point ( °F °C ) Humidity (%) Winds ( mph kmh ) Pressure ( in mb ) Visibility ( mi km ) Precip ( " mm )
12:53 am 00:53 Clear 60 15.6 58 14.4 93 93 N 6 9 30 1016 10 16.0934 0 0
1:53 am 01:53 Clear 58 14.4 57 13.9 97 97 NW 5 7 30 1016 10 16.0934 0 0
2:53 am 02:53 Clear 57 13.9 56 13.3 96 96 Calm 30 1016 7 11.26538 0 0
3:53 am 03:53 Clear 57 13.9 55 12.8 93 93 Calm 29.99 1016 9 14.48406 0 0
4:53 am 04:53 Clear 57 13.9 55 12.8 93 93 Calm 30.01 1016 10 16.0934 0 0
5:53 am 05:53 Sunny 56 13.3 55 12.8 97 97 Calm 30.05 1018 8 12.87472 0 0
6:53 am 06:53 Sunny 60 15.6 57 13.9 90 90 Calm 30.03 1017 10 16.0934 0 0
7:53 am 07:53 Sunny 65 18.3 60 15.6 84 84 Calm 30.03 1017 10 16.0934 0 0
8:53 am 08:53 Sunny 68 20 60 15.6 76 76 S 5 7 30.02 1017 10 16.0934 0 0
9:53 am 09:53 Sunny 73 22.8 61 16.1 66 66 VRB 5 7 29.99 1016 10 16.0934 0 0
10:53 am 10:53 Sunny 78 25.6 58 14.4 50 50 W 10 17 29.98 1015 10 16.0934 0 0
11:53 am 11:53 Sunny 80 26.7 57 13.9 45 45 W 14 22 29.97 1015 10 16.0934 0 0
12:53 pm 12:53 Sunny 82 27.8 59 15 46 46 W 10 17 29.96 1015 10 16.0934 0 0
1:53 pm 13:53 Sunny 83 28.3 51 10.6 33 33 W 15 24 29.94 1014 10 16.0934 0 0
2:53 pm 14:53 Partly Cloudy 86 30 50 10 29 29 W 13 20 29.93 1014 10 16.0934 0 0
3:53 pm 15:53 Hazy 88 31.1 50 10 27 27 WSW 13 20 29.91 1013 6 9.65604 0 0
4:53 pm 16:53 Sunny 89 31.7 42 5.6 19 19 W 16 26 29.9 1013 10 16.0934 0 0
5:53 pm 17:53 Sunny 87 30.6 47 8.3 25 25 W 9 15 29.89 1012 10 16.0934 0 0
6:53 pm 18:53 Sunny 86 30 49 9.4 28 28 W 7 11 29.88 1012 10 16.0934 0 0
7:53 pm 19:53 Sunny 78 25.6 53 11.7 42 42 Calm 29.88 1012 10 16.0934 0 0
8:53 pm 20:53 Clear 68 20 57 13.9 68 68 NNW 6 9 29.91 1013 10 16.0934 0 0
9:53 pm 21:53 Clear 67 19.4 54 12.2 63 63 NNW 5 7 29.93 1014 10 16.0934 0 0
10:53 pm 22:53 Clear 63 17.2 54 12.2 73 73 NW 7 11 29.96 1015 10 16.0934 0 0
11:53 pm 23:53 Clear 68 20 48 8.9 49 49 W 5 7 29.96 1015 10 16.0934 0 0

Powered by AerisWeather